TimeCDT,TemperatureF,Dew PointF,Humidity,Sea Level PressureIn,VisibilityMPH,Wind Direction,Wind SpeedMPH,Gust SpeedMPH,PrecipitationIn,Events,Conditions,WindDirDegrees,DateUTC
12:58 AM,53.4,45.0,73,30.03,10.0,NW,5.8,-,N/A,,Clear,310,2013-05-06 05:58:00
1:58 AM,51.8,45.3,79,30.02,10.0,WNW,2.3,-,N/A,,Clear,290,2013-05-06 06:58:00
2:58 AM,51.4,46.0,82,30.01,10.0,West,3.5,-,N/A,,Clear,270,2013-05-06 07:58:00
3:58 AM,48.7,44.2,84,30.00,10.0,WNW,4.6,-,N/A,,Clear,290,2013-05-06 08:58:00
4:58 AM,52.0,45.1,77,30.00,10.0,West,4.6,-,N/A,,Clear,270,2013-05-06 09:58:00
5:58 AM,51.3,45.7,81,30.01,10.0,WNW,2.3,-,N/A,,Clear,290,2013-05-06 10:58:00
6:58 AM,54.0,44.8,71,30.03,10.0,West,4.6,-,N/A,,Overcast,280,2013-05-06 11:58:00
7:58 AM,57.2,45.5,65,30.04,10.0,Variable,4.6,-,N/A,,Overcast,0,2013-05-06 12:58:00
8:58 AM,63.1,46.0,54,30.04,10.0,Variable,6.9,-,N/A,,Clear,0,2013-05-06 13:58:00
9:58 AM,67.3,47.8,50,30.04,10.0,West,5.8,-,N/A,,Clear,270,2013-05-06 14:58:00
10:58 AM,69.3,47.5,46,30.03,10.0,West,5.8,-,N/A,,Clear,270,2013-05-06 15:58:00
11:58 AM,70.7,47.5,44,30.01,10.0,Variable,4.6,-,N/A,,Clear,0,2013-05-06 16:58:00
12:58 PM,70.0,51.1,51,29.99,10.0,WSW,18.4,25.3,N/A,,Clear,240,2013-05-06 17:58:00
1:58 PM,69.8,53.6,56,29.97,10.0,SW,23.0,28.8,N/A,,Partly Cloudy,220,2013-05-06 18:58:00
2:58 PM,69.8,50.5,50,29.95,10.0,SW,20.7,29.9,N/A,,Overcast,230,2013-05-06 19:58:00
3:58 PM,71.2,51.3,49,29.93,10.0,WSW,24.2,32.2,N/A,,Scattered Clouds,240,2013-05-06 20:58:00
4:58 PM,69.8,50.7,51,29.93,10.0,WSW,18.4,24.2,N/A,,Mostly Cloudy,240,2013-05-06 21:58:00
5:58 PM,70.2,50.9,50,29.93,10.0,WSW,9.2,18.4,N/A,,Overcast,250,2013-05-06 22:58:00
6:58 PM,70.0,50.0,49,29.94,10.0,West,5.8,-,N/A,,Overcast,260,2013-05-06 23:58:00
7:58 PM,68.0,50.7,54,29.95,10.0,Variable,3.5,-,N/A,,Scattered Clouds,0,2013-05-07 00:58:00
8:58 PM,66.6,52.5,61,29.97,10.0,West,3.5,-,N/A,,Mostly Cloudy,260,2013-05-07 01:58:00
9:58 PM,65.3,53.2,65,30.00,10.0,Calm,Calm,-,N/A,,Partly Cloudy,350,2013-05-07 02:58:00
10:58 PM,64.6,55.2,72,30.01,10.0,Calm,Calm,-,N/A,,Overcast,0,2013-05-07 03:58:00
11:58 PM,63.0,54.0,72,30.00,10.0,Calm,Calm,-,N/A,,Partly Cloudy,0,2013-05-07 04:58:00